{"data":{"norad_id":62958,"intl_designator":"2025-029L","name":"STARLINK-32885","alt_names":[],"object_type":"PAYLOAD","status":"ACTIVE","operator":null,"country":"US","launch_date":"2025-02-11","launch_site_code":"AFWTR","launch_vehicle":null,"mission":null,"orbit_class":"UNKNOWN","rcs_meters":null,"size_class":null,"mass_kg":null,"dimensions":null,"purposes":["comms"],"wikipedia_slug":null,"has_3d_model":false,"image_url":null,"decayed_at":null,"tle_current":{"epoch":"2026-05-24T23:36:18.299232Z","epoch_age_seconds":72635,"freshness":"FRESH","line1":"1 62958U 25029L   26144.98354513  .00028380  00000+0  84780-3 0  9993","line2":"2 62958  53.1591 235.5862 0001012  70.0986 290.0126 15.34403265 73037","mean_motion":15.34403265,"eccentricity":0.0001012,"inclination_deg":53.1591,"raan_deg":235.5862,"arg_perigee_deg":70.0986,"mean_anomaly_deg":290.0126,"bstar":0.0008478,"rev_number":7303,"period_min":93.847558386159,"perigee_km":462.00124390601,"apogee_km":463.38582800649,"semimajor_km":6840.8305359562,"source":"CELESTRAK","updated_at":"2026-05-25T13:38:19.826172Z"}}}